#timestamp,LO_Frequency,Hit,StdDev 
1572112815.4,286047004.7,P
1572112835.2,286047000.1,N
1572112855.0,286046999.5,N
1572112855.9,286046999.5,N
1572112875.8,286046997.1,N
1572112895.6,286046999.2,N
1572112915.5,286046995.3,N
1572112935.3,286046994.9,N
1572112955.1,286046994.1,N
1572112975.9,286046990.6,N
1572112995.7,286046988.8,N
1572113015.5,286046991.1,N
1572113035.4,286046991.5,N
1572113055.2,286046994.4,N
1572113075.1,286046993.7,N
1572113076.0,286046993.7,N
1572113095.8,286046993.3,N
1572113115.6,286046995.7,N
1572113135.5,286046995.5,N
1572113155.3,286046996.0,N
1572113175.1,286046993.4,N
1572113195.9,286046993.6,N
1572113215.7,286046994.4,N
1572113235.6,286046994.4,N
1572113255.4,286046993.3,N
1572113275.2,286046997.3,N
1572113295.1,286046997.8,N
1572113296.0,286046997.8,N
1572113315.8,286046996.1,N
1572113335.6,286046995.3,N
1572113355.5,286046995.6,N
1572113375.3,286046995.4,N
1572113395.2,286046995.2,N
1572113415.9,286046997.8,N
1572113435.7,286046999.4,N
1572113455.6,286046999.1,N
1572113475.4,286047000.9,N
1572113495.3,286047000.4,N
1572113515.1,286047002.0,N
1572113516.0,286047002.0,N
1572113535.8,286047002.8,N
1572113555.7,286047002.0,N
1572113575.5,286047002.0,N
1572113595.3,286047003.5,N
1572113615.2,286047004.5,N
1572113635.0,286047005.4,N
1572113635.9,286047005.4,N
1572113655.8,286047003.3,N
1572113675.6,286047004.4,N
1572113695.4,286047001.3,N
1572113715.3,286047004.3,N
1572113735.1,286047004.1,N
1572113755.8,286047003.8,N
1572113775.7,286047001.7,N
1572113795.5,286047004.0,N
1572113815.4,286047002.5,N
1572113835.2,286047000.0,N
1572113855.0,286047000.3,N
1572113855.9,286047000.3,N
1572113875.8,286047001.9,N
1572113895.6,286047001.7,N
1572113915.4,286047002.2,N
1572113935.3,286047002.1,N
1572113955.1,286047001.6,N
1572113975.9,286047001.3,N
1572113995.7,286047002.0,N
1572114015.5,286047003.6,N
1572114035.4,286047001.7,N
1572114055.2,286047003.7,N
1572114075.0,286047005.7,Y
1572114075.9,286047005.7,P
1572114095.8,286047001.6,N
1572114115.6,286047001.9,N
1572114135.5,286047000.1,N
1572114155.3,286047002.8,N
1572114175.1,286047002.5,N
1572114195.9,286047002.4,N
1572114215.7,286047003.9,N
1572114235.5,286047001.4,N
1572114255.4,286047003.1,N
1572114275.2,286047005.2,Y
1572114295.1,286047001.8,P
1572114296.0,286047001.8,P
1572114315.8,286047004.4,P
1572114335.6,286047003.0,N
1572114355.5,286047003.9,Y
1572114405.4,286046998.8,E
1572114415.3,286046999.2,N
1572114435.1,286046996.5,P
1572114455.8,286046996.9,N
1572114475.7,286047000.6,N
1572114495.5,286046998.7,N
1572114515.4,286047000.6,N
1572114535.2,286047002.8,N
1572114555.0,286047000.1,N
1572114555.9,286047000.1,N
1572114575.8,286046999.8,N
1572114595.6,286047000.4,N
1572114615.5,286047000.1,N
1572114635.3,286047001.1,N
1572114655.1,286047000.5,N
1572114675.9,286047002.3,N
1572114695.7,286047002.3,N
1572114715.5,286047000.1,N
1572114735.4,286046998.3,N
1572114755.2,286046998.3,N
1572114775.1,286047000.0,N
1572114776.0,286047000.0,N
1572114795.8,286047001.2,N
1572114815.6,286047000.9,N
1572114835.5,286047002.8,N
1572114855.3,286047000.2,N
1572114875.1,286046999.8,N
1572114895.9,286047002.4,N
1572114915.7,286047000.9,N
1572114935.6,286046999.9,N
1572114955.4,286047000.4,N
1572114975.2,286047000.5,N
1572114995.1,286046999.8,N
1572114996.0,286046999.8,N
1572115015.8,286047001.5,N
1572115035.7,286047002.3,N
1572115055.5,286047004.1,Y
1572115075.3,286047002.3,P
1572115095.2,286047001.1,N
1572115115.0,286047000.0,N
1572115115.9,286047000.0,N
1572115135.7,286047002.7,Y
1572115155.6,286046998.2,P
1572115175.4,286047001.2,N
1572115195.3,286046999.4,N
1572115215.1,286046999.0,N
1572115216.0,286046999.0,N
1572115235.8,286047000.7,N
1572115255.7,286047001.0,N
1572115275.5,286047001.1,N
1572115295.3,286047000.6,N
1572115315.2,286047000.9,N
1572115335.0,286047000.8,N
1572115335.9,286047000.8,N
1572115355.8,286046998.7,N
1572115375.6,286046999.1,N
1572115395.4,286046995.4,Y
1572115415.3,286046994.9,P
1572115435.1,286046997.8,N
1572115455.8,286046997.9,N
1572115475.7,286046997.5,N
1572115495.5,286046999.4,N
1572115515.4,286047000.9,N
1572115535.2,286047002.8,N
1572115555.0,286047000.2,N
1572115555.9,286047000.2,N
1572115575.8,286047002.7,N
1572115595.6,286047000.9,N
1572115615.4,286046998.5,N
1572115635.3,286047000.3,N
1572115655.1,286047002.6,N
1572115675.9,286047002.4,N
1572115695.7,286047001.3,N
1572115715.5,286047001.4,N
1572115735.4,286047002.9,N
1572115755.2,286047004.5,N
1572115775.0,286047002.9,N
1572115775.9,286047002.9,N
1572115795.8,286047005.9,N
1572115815.6,286047004.5,N
1572115835.5,286047004.7,N
1572115855.3,286047002.9,N
1572115875.1,286047003.6,N
1572115895.9,286047003.2,N
1572115915.7,286047002.9,N
1572115935.5,286047002.9,N
1572115955.4,286047005.0,N
1572115975.2,286047005.2,N
1572115995.1,286047005.8,N
1572115996.0,286047005.8,N
1572116015.8,286047004.9,N
1572116035.6,286047006.0,Y
1572116055.5,286047002.0,P
1572116075.3,286047001.5,P
1572116095.2,286047001.3,N
1572116115.9,286047004.3,Y
1572116135.7,286046999.9,P
1572116155.6,286047002.7,N
1572116175.4,286047002.4,N
1572116195.2,286047002.7,N
1572116215.1,286047002.2,N
1572116216.0,286047002.2,N
1572116235.8,286047001.7,N
1572116255.7,286047002.5,N
1572116275.5,286047001.5,N
1572116295.3,286047001.8,N
1572116315.2,286046999.7,N
1572116335.0,286047001.9,N
1572116335.9,286047001.9,N
1572116355.7,286047001.5,N
1572116375.6,286047002.6,N
1572116395.4,286047001.5,N
